This is the latest recevied weather packets stored in our database for station/object K7CTM. If no packets are shown the sender has not sent any weather packets the latest 10 day(s).
| Time | Temp. | Humidity | Pressure | Rain* | Wind** | Luminosity | Snow |
|---|---|---|---|---|---|---|---|
| 1777850256 | 23.33° C | 20% | 1018.8 hPa | 0 mm | - | 401 W/m² | - |
| 1777849952 | 23.33° C | 22% | 1018.9 hPa | 0 mm | - | 417 W/m² | - |
| 1777849648 | 23.33° C | 20% | 1019 hPa | 0 mm | - | 434 W/m² | - |
| 1777849346 | 23.33° C | 21% | 1019 hPa | 0 mm | - | 452 W/m² | - |
| 1777849043 | 23.89° C | 21% | 1019.1 hPa | 0 mm | - | 460 W/m² | - |
| 1777848743 | 23.33° C | 21% | 1018.9 hPa | 0 mm | - | 480 W/m² | - |
| 1777848440 | 22.78° C | 20% | 1019.1 hPa | 0 mm | - | 496 W/m² | - |
| 1777848138 | 23.33° C | 21% | 1019.4 hPa | 0 mm | - | 509 W/m² | - |
| 1777847836 | 22.78° C | 23% | 1019.3 hPa | 0 mm | - | 525 W/m² | - |
| 1777847533 | 22.78° C | 22% | 1019.3 hPa | 0 mm | - | 538 W/m² | - |
| 1777847229 | 23.33° C | 20% | 1019.5 hPa | 0 mm | - | 550 W/m² | - |
| 1777846927 | 22.78° C | 21% | 1019.3 hPa | 0 mm | - | 562 W/m² | - |
| 1777846626 | 22.78° C | 21% | 1019.6 hPa | 0 mm | - | 579 W/m² | - |
| 1777846323 | 23.33° C | 20% | 1019.5 hPa | 0 mm | - | 590 W/m² | - |
| 1777846019 | 23.33° C | 21% | 1019.7 hPa | 0 mm | - | 604 W/m² | - |
| 1777845716 | 22.78° C | 22% | 1019.7 hPa | 0 mm | - | 614 W/m² | - |
| 1777845413 | 22.78° C | 25% | 1019.7 hPa | 0 mm | - | 629 W/m² | - |
| 1777845109 | 22.78° C | 22% | 1019.9 hPa | 0 mm | - | 647 W/m² | - |
| 1777844808 | 22.78° C | 20% | 1020 hPa | 0 mm | - | 651 W/m² | - |
| 1777844504 | 23.33° C | 22% | 1020.2 hPa | 0 mm | - | 90 W/m² | - |
| 1777844197 | 23.33° C | 23% | 1020.2 hPa | 0 mm | - | 677 W/m² | - |
| 1777843894 | 23.33° C | 25% | 1020.2 hPa | 0 mm | - | 688 W/m² | - |
| 1777843591 | 22.22° C | 22% | 1020.4 hPa | 0 mm | - | 699 W/m² | - |
| 1777843288 | 22.22° C | 24% | 1020.6 hPa | 0 mm | - | 702 W/m² | - |
| 1777842986 | 22.78° C | 22% | 1020.7 hPa | 0 mm | - | 710 W/m² | - |
* Rain latest hour (hover to see other rain measurements)
** Current wind speed in m/s (hover to see current wind gust speed)